Time,TemperatureF,DewpointF,PressureIn,WindDirection,WindDirectionDegrees,WindSpeedMPH,WindSpeedGustMPH,Humidity,HourlyPrecipIn,Conditions,Clouds,dailyrainin,SoftwareType,DateUTC
2013-02-15 00:01:00,28.0,19.0,-100.00,SSE,160,0.0,2.0,65,0.00,,,-99.99,,2013-02-15 07:01:00,
2013-02-15 00:11:00,29.0,18.0,-100.00,West,265,0.0,2.0,64,0.00,,,-99.99,,2013-02-15 07:11:00,
2013-02-15 00:21:00,29.0,17.0,-100.00,SSW,210,1.0,2.0,62,0.00,,,-99.99,,2013-02-15 07:21:00,
2013-02-15 00:31:00,29.0,17.0,-100.00,NNW,345,1.0,4.0,61,0.00,,,-99.99,,2013-02-15 07:31:00,
2013-02-15 00:41:00,28.0,16.0,-100.00,NNE,15,1.0,4.0,61,0.00,,,-99.99,,2013-02-15 07:41:00,
2013-02-15 00:52:00,28.0,16.0,-100.00,NE,35,1.0,3.0,62,0.00,,,-99.99,,2013-02-15 07:52:00,
2013-02-15 01:01:00,27.0,16.0,-100.00,NE,50,1.0,4.0,62,0.00,,,-99.99,,2013-02-15 08:01:00,
2013-02-15 01:11:00,27.0,16.0,-100.00,East,100,0.0,4.0,63,0.00,,,-99.99,,2013-02-15 08:11:00,
2013-02-15 01:21:00,27.0,16.0,-100.00,SSW,210,0.0,4.0,63,0.00,,,-99.99,,2013-02-15 08:21:00,
2013-02-15 01:31:00,26.0,15.0,-100.00,ENE,75,0.0,1.0,63,0.00,,,-99.99,,2013-02-15 08:31:00,
2013-02-15 01:41:00,25.0,15.0,-100.00,East,100,0.0,0.0,64,0.00,,,-99.99,,2013-02-15 08:41:00,
2013-02-15 01:52:00,26.0,16.0,-100.00,NNW,340,3.0,4.0,65,0.00,,,-99.99,,2013-02-15 08:52:00,
2013-02-15 02:01:00,26.0,16.0,-100.00,ENE,70,2.0,3.0,65,0.00,,,-99.99,,2013-02-15 09:01:00,
2013-02-15 02:12:00,26.0,16.0,-100.00,NNW,340,2.0,4.0,66,0.00,,,-99.99,,2013-02-15 09:12:00,
2013-02-15 02:21:00,25.0,16.0,-100.00,SW,225,0.0,4.0,67,0.00,,,-99.99,,2013-02-15 09:21:00,
2013-02-15 02:31:00,24.0,15.0,-100.00,SW,225,0.0,1.0,67,0.00,,,-99.99,,2013-02-15 09:31:00,
2013-02-15 02:41:00,24.0,15.0,-100.00,SSW,200,0.0,1.0,68,0.00,,,-99.99,,2013-02-15 09:41:00,
2013-02-15 02:51:00,24.0,15.0,-100.00,SSW,200,0.0,1.0,69,0.00,,,-99.99,,2013-02-15 09:51:00,
2013-02-15 03:01:00,24.0,16.0,-100.00,SSE,160,0.0,2.0,70,0.00,,,-99.99,,2013-02-15 10:01:00,
2013-02-15 03:11:00,24.0,16.0,-100.00,North,0,2.0,4.0,71,0.00,,,-99.99,,2013-02-15 10:11:00,
2013-02-15 03:21:00,25.0,17.0,-100.00,NNE,25,2.0,6.0,71,0.00,,,-99.99,,2013-02-15 10:21:00,
2013-02-15 03:31:00,25.0,17.0,-100.00,West,275,1.0,7.0,71,0.00,,,-99.99,,2013-02-15 10:31:00,
2013-02-15 03:41:00,25.0,17.0,-100.00,North,0,3.0,5.0,70,0.00,,,-99.99,,2013-02-15 10:41:00,
2013-02-15 03:51:00,25.0,16.0,-100.00,NW,315,1.0,4.0,70,0.00,,,-99.99,,2013-02-15 10:51:00,
2013-02-15 04:01:00,24.0,16.0,-100.00,NNW,330,4.0,7.0,69,0.00,,,-99.99,,2013-02-15 11:01:00,
2013-02-15 04:11:00,24.0,15.0,-100.00,NNW,345,4.0,6.0,69,0.00,,,-99.99,,2013-02-15 11:11:00,
2013-02-15 04:22:00,24.0,15.0,-100.00,WSW,250,1.0,5.0,69,0.00,,,-99.99,,2013-02-15 11:22:00,
2013-02-15 04:31:00,24.0,15.0,-100.00,NW,325,2.0,3.0,69,0.00,,,-99.99,,2013-02-15 11:31:00,
2013-02-15 04:42:00,24.0,15.0,-100.00,NNW,340,2.0,4.0,69,0.00,,,-99.99,,2013-02-15 11:42:00,
2013-02-15 04:52:00,24.0,15.0,-100.00,NW,305,0.0,4.0,68,0.00,,,-99.99,,2013-02-15 11:52:00,
2013-02-15 05:01:00,23.0,15.0,-100.00,NE,55,1.0,2.0,68,0.00,,,-99.99,,2013-02-15 12:01:00,
2013-02-15 05:11:00,23.0,14.0,-100.00,WNW,300,1.0,2.0,69,0.00,,,-99.99,,2013-02-15 12:11:00,
2013-02-15 05:21:00,22.0,14.0,-100.00,WNW,300,0.0,2.0,70,0.00,,,-99.99,,2013-02-15 12:21:00,
2013-02-15 05:31:00,22.0,15.0,-100.00,North,0,1.0,4.0,71,0.00,,,-99.99,,2013-02-15 12:31:00,
2013-02-15 05:42:00,22.0,15.0,-100.00,SW,215,1.0,3.0,72,0.00,,,-99.99,,2013-02-15 12:42:00,
2013-02-15 05:52:00,22.0,15.0,-100.00,ENE,70,0.0,1.0,73,0.00,,,-99.99,,2013-02-15 12:52:00,
2013-02-15 06:02:00,22.0,15.0,-100.00,East,95,0.0,1.0,74,0.00,,,-99.99,,2013-02-15 13:02:00,
2013-02-15 06:11:00,22.0,15.0,-100.00,South,190,0.0,0.0,75,0.00,,,-99.99,,2013-02-15 13:11:00,
2013-02-15 06:21:00,22.0,15.0,-100.00,SW,225,0.0,0.0,76,0.00,,,-99.99,,2013-02-15 13:21:00,
2013-02-15 06:31:00,22.0,16.0,-100.00,WSW,240,0.0,0.0,77,0.00,,,-99.99,,2013-02-15 13:31:00,
2013-02-15 06:41:00,22.0,17.0,-100.00,ENE,75,0.0,2.0,78,0.00,,,-99.99,,2013-02-15 13:41:00,
2013-02-15 06:51:00,23.0,17.0,-100.00,SE,145,0.0,0.0,78,0.00,,,-99.99,,2013-02-15 13:51:00,
2013-02-15 07:01:00,22.0,17.0,-100.00,SE,145,0.0,0.0,78,0.00,,,-99.99,,2013-02-15 14:01:00,
2013-02-15 07:11:00,23.0,17.0,-100.00,NNW,345,0.0,0.0,78,0.00,,,-99.99,,2013-02-15 14:11:00,
2013-02-15 07:21:00,23.0,17.0,-100.00,West,265,0.0,0.0,78,0.00,,,-99.99,,2013-02-15 14:21:00,
2013-02-15 07:32:00,23.0,17.0,-100.00,SE,130,0.0,0.0,78,0.00,,,-99.99,,2013-02-15 14:32:00,
2013-02-15 07:41:00,23.0,17.0,-100.00,ENE,75,0.0,3.0,78,0.00,,,-99.99,,2013-02-15 14:41:00,
2013-02-15 07:52:00,23.0,18.0,-100.00,SSE,150,1.0,4.0,78,0.00,,,-99.99,,2013-02-15 14:52:00,
2013-02-15 08:01:00,24.0,18.0,-100.00,NW,320,2.0,6.0,78,0.00,,,-99.99,,2013-02-15 15:01:00,
2013-02-15 08:11:00,24.0,18.0,-100.00,SW,230,0.0,3.0,78,0.00,,,-99.99,,2013-02-15 15:11:00,
2013-02-15 08:21:00,24.0,18.0,-100.00,SSW,205,0.0,3.0,78,0.00,,,-99.99,,2013-02-15 15:21:00,
2013-02-15 08:32:00,24.0,19.0,-100.00,WSW,240,0.0,0.0,78,0.00,,,-99.99,,2013-02-15 15:32:00,
2013-02-15 08:41:00,25.0,19.0,-100.00,SSW,200,0.0,0.0,78,0.00,,,-99.99,,2013-02-15 15:41:00,
2013-02-15 08:51:00,26.0,20.0,-100.00,SSW,210,0.0,0.0,77,0.00,,,-99.99,,2013-02-15 15:51:00,
2013-02-15 09:01:00,28.0,22.0,-100.00,South,190,1.0,2.0,75,0.00,,,-99.99,,2013-02-15 16:01:00,
2013-02-15 09:11:00,30.0,22.0,-100.00,SW,225,1.0,2.0,71,0.00,,,-99.99,,2013-02-15 16:11:00,
2013-02-15 09:22:00,31.0,21.0,-100.00,SE,140,2.0,4.0,65,0.00,,,-99.99,,2013-02-15 16:22:00,
2013-02-15 09:31:00,33.0,20.0,-100.00,South,170,2.0,4.0,57,0.00,,,-99.99,,2013-02-15 16:31:00,
2013-02-15 09:42:00,33.0,18.0,-100.00,SSE,160,3.0,7.0,53,0.00,,,-99.99,,2013-02-15 16:42:00,
2013-02-15 09:51:00,34.0,18.0,-100.00,South,175,2.0,7.0,51,0.00,,,-99.99,,2013-02-15 16:51:00,
2013-02-15 10:01:00,34.0,18.0,-100.00,SSE,165,4.0,6.0,50,0.00,,,-99.99,,2013-02-15 17:01:00,
2013-02-15 10:11:00,34.0,18.0,-100.00,SSE,150,4.0,8.0,49,0.00,,,-99.99,,2013-02-15 17:11:00,
2013-02-15 10:21:00,35.0,18.0,-100.00,SSW,195,4.0,15.0,49,0.00,,,-99.99,,2013-02-15 17:21:00,
2013-02-15 10:32:00,35.0,18.0,-100.00,SSE,165,3.0,7.0,49,0.00,,,-99.99,,2013-02-15 17:32:00,
2013-02-15 10:41:00,35.0,18.0,-100.00,SSE,165,3.0,11.0,48,0.00,,,-99.99,,2013-02-15 17:41:00,
2013-02-15 10:52:00,35.0,17.0,-100.00,SSE,150,4.0,15.0,48,0.00,,,-99.99,,2013-02-15 17:52:00,
2013-02-15 11:01:00,34.0,17.0,-100.00,SSE,150,5.0,12.0,48,0.00,,,-99.99,,2013-02-15 18:01:00,
2013-02-15 11:11:00,35.0,17.0,-100.00,SSE,155,4.0,11.0,49,0.00,,,-99.99,,2013-02-15 18:11:00,
2013-02-15 11:21:00,34.0,17.0,-100.00,SSE,155,3.0,11.0,50,0.00,,,-99.99,,2013-02-15 18:21:00,
2013-02-15 11:31:00,34.0,18.0,-100.00,SSE,165,4.0,9.0,50,0.00,,,-99.99,,2013-02-15 18:31:00,
2013-02-15 11:41:00,35.0,18.0,-100.00,SSE,150,4.0,8.0,49,0.00,,,-99.99,,2013-02-15 18:41:00,
2013-02-15 11:52:00,36.0,19.0,-100.00,SSE,160,2.0,9.0,48,0.00,,,-99.99,,2013-02-15 18:52:00,
2013-02-15 12:01:00,37.0,19.0,-100.00,SW,225,1.0,7.0,46,0.00,,,-99.99,,2013-02-15 19:01:00,
2013-02-15 12:11:00,36.0,17.0,-100.00,SE,145,3.0,11.0,45,0.00,,,-99.99,,2013-02-15 19:11:00,
2013-02-15 12:21:00,36.0,17.0,-100.00,SSE,160,6.0,10.0,45,0.00,,,-99.99,,2013-02-15 19:21:00,
2013-02-15 12:32:00,36.0,17.0,-100.00,South,180,2.0,9.0,44,0.00,,,-99.99,,2013-02-15 19:32:00,
2013-02-15 12:41:00,37.0,17.0,-100.00,SSE,150,4.0,10.0,42,0.00,,,-99.99,,2013-02-15 19:41:00,
2013-02-15 12:51:00,37.0,16.0,-100.00,SSE,155,7.0,13.0,41,0.00,,,-99.99,,2013-02-15 19:51:00,
2013-02-15 13:01:00,37.0,16.0,-100.00,SE,145,4.0,15.0,41,0.00,,,-99.99,,2013-02-15 20:01:00,
2013-02-15 13:11:00,37.0,16.0,-100.00,South,170,2.0,7.0,41,0.00,,,-99.99,,2013-02-15 20:11:00,
2013-02-15 13:21:00,37.0,15.0,-100.00,SE,125,6.0,12.0,40,0.00,,,-99.99,,2013-02-15 20:21:00,
2013-02-15 13:32:00,37.0,15.0,-100.00,SSE,165,7.0,12.0,40,0.00,,,-99.99,,2013-02-15 20:32:00,
2013-02-15 13:42:00,37.0,15.0,-100.00,SSE,150,7.0,14.0,40,0.00,,,-99.99,,2013-02-15 20:42:00,
2013-02-15 13:52:00,38.0,16.0,-100.00,SE,130,7.0,14.0,40,0.00,,,-99.99,,2013-02-15 20:52:00,
2013-02-15 14:01:00,38.0,15.0,-100.00,SSE,150,6.0,13.0,38,0.00,,,-99.99,,2013-02-15 21:01:00,
2013-02-15 14:11:00,37.0,14.0,-100.00,SSE,155,4.0,13.0,38,0.00,,,-99.99,,2013-02-15 21:11:00,
2013-02-15 14:21:00,38.0,15.0,-100.00,ESE,120,6.0,16.0,38,0.00,,,-99.99,,2013-02-15 21:21:00,
2013-02-15 14:31:00,40.0,16.0,-100.00,North,0,2.0,12.0,36,0.00,,,-99.99,,2013-02-15 21:31:00,
2013-02-15 14:42:00,40.0,15.0,-100.00,South,185,2.0,13.0,35,0.00,,,-99.99,,2013-02-15 21:42:00,
2013-02-15 14:51:00,40.0,14.0,-100.00,ESE,120,4.0,15.0,34,0.00,,,-99.99,,2013-02-15 21:51:00,
2013-02-15 15:02:00,42.0,15.0,-100.00,West,270,2.0,9.0,32,0.00,,,-99.99,,2013-02-15 22:02:00,
2013-02-15 15:11:00,41.0,14.0,-100.00,ESE,120,1.0,10.0,32,0.00,,,-99.99,,2013-02-15 22:11:00,
2013-02-15 15:21:00,39.0,12.0,-100.00,SSE,150,6.0,13.0,32,0.00,,,-99.99,,2013-02-15 22:21:00,
2013-02-15 15:31:00,38.0,12.0,-100.00,East,100,4.0,13.0,34,0.00,,,-99.99,,2013-02-15 22:31:00,
2013-02-15 15:41:00,37.0,12.0,-100.00,SSE,155,4.0,16.0,35,0.00,,,-99.99,,2013-02-15 22:41:00,
2013-02-15 15:52:00,36.0,12.0,-100.00,SE,135,6.0,14.0,36,0.00,,,-99.99,,2013-02-15 22:52:00,
2013-02-15 16:02:00,36.0,12.0,-100.00,South,170,7.0,15.0,36,0.00,,,-99.99,,2013-02-15 23:02:00,
2013-02-15 16:11:00,36.0,12.0,-100.00,SSE,160,7.0,17.0,36,0.00,,,-99.99,,2013-02-15 23:11:00,
2013-02-15 16:21:00,36.0,12.0,-100.00,SSE,150,9.0,21.0,36,0.00,,,-99.99,,2013-02-15 23:21:00,
2013-02-15 16:31:00,36.0,12.0,-100.00,SSE,150,7.0,21.0,36,0.00,,,-99.99,,2013-02-15 23:31:00,
2013-02-15 16:41:00,36.0,12.0,-100.00,SSE,150,6.0,15.0,36,0.00,,,-99.99,,2013-02-15 23:41:00,
2013-02-15 16:52:00,36.0,12.0,-100.00,SSE,160,5.0,15.0,36,0.00,,,-99.99,,2013-02-15 23:52:00,
2013-02-15 17:01:00,36.0,12.0,-100.00,SSW,200,6.0,14.0,36,0.00,,,-99.99,,2013-02-16 00:01:00,
2013-02-15 17:11:00,36.0,12.0,-100.00,SSE,155,5.0,10.0,36,0.00,,,-99.99,,2013-02-16 00:11:00,
2013-02-15 17:21:00,36.0,12.0,-100.00,SE,145,1.0,12.0,36,0.00,,,-99.99,,2013-02-16 00:21:00,
2013-02-15 17:32:00,35.0,12.0,-100.00,SSE,160,4.0,7.0,37,0.00,,,-99.99,,2013-02-16 00:32:00,
2013-02-15 17:41:00,35.0,12.0,-100.00,WNW,300,1.0,10.0,37,0.00,,,-99.99,,2013-02-16 00:41:00,
2013-02-15 17:51:00,35.0,12.0,-100.00,SSE,165,1.0,8.0,38,0.00,,,-99.99,,2013-02-16 00:51:00,
2013-02-15 18:02:00,35.0,12.0,-100.00,SSE,160,2.0,6.0,38,0.00,,,-99.99,,2013-02-16 01:02:00,
2013-02-15 18:11:00,35.0,13.0,-100.00,SSW,200,2.0,6.0,39,0.00,,,-99.99,,2013-02-16 01:11:00,
2013-02-15 18:21:00,35.0,13.0,-100.00,North,0,2.0,4.0,39,0.00,,,-99.99,,2013-02-16 01:21:00,
2013-02-15 18:31:00,35.0,13.0,-100.00,West,275,1.0,4.0,39,0.00,,,-99.99,,2013-02-16 01:31:00,
2013-02-15 18:41:00,35.0,13.0,-100.00,SSW,210,0.0,4.0,40,0.00,,,-99.99,,2013-02-16 01:41:00,
2013-02-15 18:51:00,34.0,13.0,-100.00,WSW,255,0.0,4.0,40,0.00,,,-99.99,,2013-02-16 01:51:00,
2013-02-15 19:01:00,33.0,13.0,-100.00,WSW,240,1.0,4.0,41,0.00,,,-99.99,,2013-02-16 02:01:00,
2013-02-15 19:11:00,33.0,13.0,-100.00,NW,320,1.0,2.0,43,0.00,,,-99.99,,2013-02-16 02:11:00,
2013-02-15 19:21:00,32.0,14.0,-100.00,West,280,0.0,0.0,45,0.00,,,-99.99,,2013-02-16 02:21:00,
2013-02-15 19:31:00,32.0,14.0,-100.00,NW,310,0.0,2.0,47,0.00,,,-99.99,,2013-02-16 02:31:00,
2013-02-15 19:42:00,31.0,14.0,-100.00,NW,305,1.0,2.0,47,0.00,,,-99.99,,2013-02-16 02:42:00,
2013-02-15 19:52:00,31.0,14.0,-100.00,West,275,0.0,2.0,48,0.00,,,-99.99,,2013-02-16 02:52:00,
2013-02-15 20:01:00,31.0,15.0,-100.00,NNW,345,3.0,6.0,49,0.00,,,-99.99,,2013-02-16 03:01:00,
2013-02-15 20:11:00,31.0,14.0,-100.00,NNW,330,1.0,4.0,49,0.00,,,-99.99,,2013-02-16 03:11:00,
2013-02-15 20:21:00,30.0,14.0,-100.00,South,180,0.0,2.0,49,0.00,,,-99.99,,2013-02-16 03:21:00,
2013-02-15 20:31:00,29.0,14.0,-100.00,NW,320,2.0,4.0,51,0.00,,,-99.99,,2013-02-16 03:31:00,
2013-02-15 20:41:00,30.0,14.0,-100.00,NW,310,3.0,4.0,51,0.00,,,-99.99,,2013-02-16 03:41:00,
2013-02-15 20:52:00,29.0,14.0,-100.00,South,185,0.0,4.0,51,0.00,,,-99.99,,2013-02-16 03:52:00,
2013-02-15 21:01:00,29.0,13.0,-100.00,NW,305,2.0,3.0,52,0.00,,,-99.99,,2013-02-16 04:01:00,
2013-02-15 21:11:00,28.0,13.0,-100.00,NW,305,0.0,2.0,53,0.00,,,-99.99,,2013-02-16 04:11:00,
2013-02-15 21:21:00,28.0,14.0,-100.00,WSW,255,1.0,4.0,54,0.00,,,-99.99,,2013-02-16 04:21:00,
2013-02-15 21:31:00,28.0,13.0,-100.00,NW,310,1.0,3.0,54,0.00,,,-99.99,,2013-02-16 04:31:00,
2013-02-15 21:41:00,27.0,13.0,-100.00,NW,320,0.0,4.0,55,0.00,,,-99.99,,2013-02-16 04:41:00,
2013-02-15 21:51:00,26.0,14.0,-100.00,NNW,330,1.0,3.0,58,0.00,,,-99.99,,2013-02-16 04:51:00,
2013-02-15 22:01:00,26.0,14.0,-100.00,WNW,295,1.0,4.0,58,0.00,,,-99.99,,2013-02-16 05:01:00,
2013-02-15 22:11:00,26.0,14.0,-100.00,South,180,0.0,3.0,59,0.00,,,-99.99,,2013-02-16 05:11:00,
2013-02-15 22:21:00,26.0,14.0,-100.00,WNW,290,2.0,3.0,60,0.00,,,-99.99,,2013-02-16 05:21:00,
2013-02-15 22:31:00,26.0,14.0,-100.00,SW,215,1.0,3.0,59,0.00,,,-99.99,,2013-02-16 05:31:00,
2013-02-15 22:42:00,26.0,14.0,-100.00,WNW,300,2.0,4.0,59,0.00,,,-99.99,,2013-02-16 05:42:00,
2013-02-15 22:52:00,26.0,14.0,-100.00,NNW,330,2.0,4.0,60,0.00,,,-99.99,,2013-02-16 05:52:00,
2013-02-15 23:01:00,26.0,14.0,-100.00,WSW,250,1.0,4.0,60,0.00,,,-99.99,,2013-02-16 06:01:00,
2013-02-15 23:11:00,25.0,13.0,-100.00,ENE,60,1.0,2.0,61,0.00,,,-99.99,,2013-02-16 06:11:00,
2013-02-15 23:21:00,24.0,13.0,-100.00,WNW,300,0.0,2.0,62,0.00,,,-99.99,,2013-02-16 06:21:00,
2013-02-15 23:32:00,23.0,13.0,-100.00,SW,215,0.0,1.0,64,0.00,,,-99.99,,2013-02-16 06:32:00,
2013-02-15 23:41:00,23.0,13.0,-100.00,East,95,0.0,1.0,66,0.00,,,-99.99,,2013-02-16 06:41:00,
2013-02-15 23:51:00,22.0,13.0,-100.00,WNW,300,0.0,2.0,67,0.00,,,-99.99,,2013-02-16 06:51:00,